Regional Weather Roundup
Issued by NWS State College, PA

Home | Current Version | Previous Version | Text Only | Print | Product List | Glossary On
Versions: 1 2 3 4 5 6 7 8 9 10 11 12 13 14 15 16 17 18 19 20 21 22 23 24 25 26 27 28 29 30 31 32 33 34 35 36 37 38 39 40 41 42 43 44 45 46 47 48 49 50
000
ASUS41 KCTP 230910
RWRCTP

REGIONAL WEATHER ROUNDUP
NATIONAL WEATHER SERVICE STATE COLLEGE PA
500 AM EDT THU OCT 23 2014

Note: "fair" indicates few or no clouds below 12,000 feet with no
significant weather and/or obstructions to visibility.

* = STATION THAT DOES NOT REPORT PRECIPITATION /E.G. RAIN...SNOW...ETC/
    THUNDER OR FOG.

PAZ002>004-007>009-013>016-020>023-029>032-231000-
WESTERN PENNSYLVANIA

CITY           SKY/WX    TMP DP  RH WIND       PRES   REMARKS
ERIE           MOCLDY    50  43  77 N13       30.17R
MEADVILLE      CLOUDY    46  42  86 N7        30.14S
FRANKLIN*      CLOUDY    45  39  81 N7        30.13S
NEW CASTLE       N/A     44  43  97 NW7       30.16S
BEAVER COUNTY  NOT AVBL
BUTLER*        CLOUDY    43  39  87 NW5       30.13S
PITTSBURGH INT CLOUDY    45  42  89 NW13      30.12F
PITTSBURGH     PTCLDY    44  39  82 NW9       30.11R
INDIANA*       CLOUDY    46  41  81 NW7       30.11R
LATROBE        NOT AVBL
WASHINGTON CO* CLOUDY    43  39  87 CALM      30.15R
$$

PAZ004>006-010>012-017>019-024>028-033>037-041-042-045-046-049>053-231000-
CENTRAL PENNSYLVANIA

CITY           SKY/WX    TMP DP  RH WIND       PRES   REMARKS
BRADFORD       CLOUDY    42  37  82 N13       30.06S
DUBOIS         CLOUDY    44  39  82 N12G21    30.05S
CLEARFIELD     CLOUDY    46  39  76 N13G20    30.03S
JOHNSTOWN      CLOUDY    42  38  85 NW13      30.03R
ALTOONA        CLOUDY    46  41  82 NW16      30.01R
STATE COLLEGE  CLOUDY    47  41  80 N10G16    29.98F
WILLIAMSPORT   MOCLDY    51  40  65 NW13G20   29.92S
SELINSGROVE    MOCLDY    51  42  71 N12G22    29.91S
FT INDIANTOWN  CLOUDY    51  46  83 NW13G21   29.86R
CAPITAL CITY   CLOUDY    54  42  64 NW12      29.89S
HARRISBURG     CLOUDY    53  42  66 N13G29    29.87S
YORK           CLOUDY    52  43  71 NW14      29.87S
$$

PAZ038>040-043-044-047-048-054-055-060>062-067>071-231000-
EASTERN PENNSYLVANIA

CITY           SKY/WX    TMP DP  RH WIND       PRES   REMARKS
SCRANTON       RAIN      47  42  83 N16G24    29.86F
MOUNT POCONO   CLOUDY    44  41  89 N14G23    29.80R
ALLENTOWN      CLOUDY    51  43  74 N10G22    29.79S
QUAKERTOWN*    CLOUDY    50  45  81 N10G18    29.79R
READING        LGT RAIN  52  43  71 NW13      29.83R
LANCASTER      CLOUDY    51  42  71 NW10G22   29.83S
COATESVILLE    PTSUNNY   50  45  81 NW17G24   29.80S
POTTSTOWN      CLOUDY    51  43  74 N15G25    29.80R
BLUE BELL      CLOUDY    52  46  82 NW7       29.76R
DOYLESTOWN     CLOUDY    50  45  83 N15G24    29.75S
WILLOW GROVE   NOT AVBL
NORTH PHILA    CLOUDY    54  44  69 N14G25    29.76R
PHILADELPHIA   CLOUDY    53  45  74 NW17      29.76R
$$



USA.gov is the U.S. government's official web portal to all federal, state and local government web resources and services.